Terminal Aerodrome Forecast
Issued by NWS

Home | Current Version | Previous Version | Text Only | Print | Product List | Glossary On
Versions: 1 2 3 4 5 6 7 8 9 10 11 12 13
000
FTUS42 KMLB 212300
TAFFPR
TAF
KFPR 212334Z 2200/2224 12010KT P6SM SCT250
     FM220600 00000KT P6SM FEW250
      TEMPO 2207/2211 1SM BR SCT003
     FM221400 25007KT P6SM FEW035=

USA.gov is the U.S. government's official web portal to all federal, state and local government web resources and services.